This demonstration page uses our WeatherBlox Daily Observations layout. Learn more.

Left ArrowRight Arrow

Hourly Observations for October 7, 2016

Temp ( °F °C ) Dew Point ( °F °C ) Humidity (%) Winds ( mph kmh ) Pressure ( in mb ) Visibility ( mi km ) Precip ( " mm )
12:53 am 00:53 Clear 71 21.7 65 18.3 81 81 SE 9 15 29.83 1010 10 16 0.00 0.00
1:53 am 01:53 Clear 67 19.4 62 16.7 84 84 E 7 11 29.84 1011 10 16 0.00 0.00
2:53 am 02:53 Clear 68 20 65 18.3 90 90 SE 7 11 29.84 1011 7 11 0.00 0.00
3:53 am 03:53 Clear with Mist and Fog 67 19.4 65 18.3 93 93 E 6 9 29.85 1011 5 8 0.00 0.00
4:15 am 04:15 Partly Cloudy with Mist and Fog 66 18.9 63 17.2 90 90 N 17 28 29.91 1013 6 10 0.00 0.00
4:21 am 04:21 Mostly Cloudy 66 18.9 61 16.1 84 84 NNE 24 39 29.94 1014 8 13 0.00 0.00
4:53 am 04:53 Cloudy 63 17.2 46 7.8 54 54 NNE 23 37 29.92 1013 10 16 0.00 0.00
5:53 am 05:53 Cloudy 62 16.7 44 6.7 52 52 NE 23 37 29.95 1014 10 16 0.00 0.00
6:11 am 06:11 Cloudy 62 16.7 44 6.7 52 52 NE 21 33 30.03 1017 10 16 0.00 0.00
6:19 am 06:19 Cloudy 61 16.1 44 6.7 54 54 NNE 21 33 30.03 1017 10 16 0.00 0.00
6:27 am 06:27 Cloudy 61 16.1 43 6.1 52 52 NNE 26 43 30.06 1018 10 16 0.00 0.00
6:53 am 06:53 Cloudy 61 16.1 42 5.6 50 50 NNE 23 37 30.01 1016 10 16 0.00 0.00
7:53 am 07:53 Cloudy 60 15.6 40 4.4 47 47 NNE 21 33 30.07 1018 10 16 0.00 0.00
8:53 am 08:53 Cloudy 58 14.4 39 3.9 50 50 NE 18 30 30.13 1020 10 16 0.00 0.00
9:28 am 09:28 Cloudy 57 14 39 4 51 51 N 15 24 30.21 1023 10 16 0.00 0.00
9:53 am 09:53 Cloudy 57 13.9 39 3.9 51 51 N 15 24 30.19 1022 10 16 0.00 0.00
10:53 am 10:53 Cloudy 57 13.9 37 2.8 47 47 N 14 22 30.23 1024 10 16 0.00 0.00
11:53 am 11:53 Cloudy 57 13.9 37 2.8 47 47 NNE 14 22 30.24 1024 10 16 0.00 0.00
12:53 pm 12:53 Cloudy 57 13.9 37 2.8 47 47 NNE 14 22 30.24 1024 10 16 0.00 0.00
1:53 pm 13:53 Cloudy 60 15.6 39 3.9 46 46 N 12 19 30.23 1024 10 16 0.00 0.00
2:44 pm 14:44 Cloudy 59 15 39 4 48 48 NNE 9 15 30.24 1024 10 16 0.00 0.00
2:53 pm 14:53 Cloudy 60 15.6 40 4.4 47 47 NNE 8 13 30.21 1023 10 16 0.00 0.00
3:53 pm 15:53 Cloudy 60 15.6 42 5.6 52 52 NNE 6 9 30.18 1022 10 16 0.00 0.00
4:53 pm 16:53 Cloudy 61 16.1 42 5.6 50 50 E 6 9 30.18 1022 10 16 0.00 0.00
5:53 pm 17:53 Cloudy 61 16.1 43 6.1 52 52 NNE 5 7 30.17 1022 10 16 0.00 0.00
6:53 pm 18:53 Cloudy 62 16.7 44 6.7 52 52 NNE 5 7 30.17 1022 10 16 0.00 0.00
7:53 pm 19:53 Cloudy 62 16.7 44 6.7 52 52 NNW 5 7 30.18 1022 10 16 0.00 0.00
8:53 pm 20:53 Cloudy 62 16.7 44 6.7 52 52 Calm 30.18 1022 10 16 0.00 0.00
9:53 pm 21:53 Cloudy 62 16.7 44 6.7 52 52 WSW 3 6 30.20 1023 10 16 0.00 0.00
10:49 pm 22:49 Cloudy 63 17 45 7 52 52 WNW 6 9 30.18 1022 10 16 0.00 0.00
10:53 pm 22:53 Cloudy 62 16.7 45 7.2 54 54 WNW 6 9 30.20 1023 10 16 0.00 0.00
11:53 pm 23:53 Cloudy 62 16.7 45 7.2 54 54 Calm 30.21 1023 10 16 0.00 0.00

Powered by AerisWeather